Location: Kelshall
(52.0000°N, 0.0500°W)
Time: 21:36:54
(UTC+00:00)

ATLAS 2AS CENTAUR R/B - Pass Details

Date: 25 January 2021
Orbit: 947 x 1265 km, 63.7° (Epoch: 13 February)

Event Time Altitude Azimuth Distance (km) Brightness Sun altitude
Rises 18:07:33 0° 269° (W) 4,222 7.6 -13.9°
Reaches altitude 10° 18:10:39 10° 277° (W) 3,247 6.4 -14.4°
Maximum altitude 18:17:55 38° 344° (NNW) 1,786 3.9 -15.5°
Enters shadow 18:23:32 16° 46° (NE) 2,721 4.3 -16.3°
